sat.trackr.live / text

‹ back to catalog

STARLINK-35857

NORAD 67186 · 2025-303Z

PAYLOAD ACTIVE UNKNOWN

§ Identity

Operator
Country
US
Launch date
2025-12-17
Launch site
AFETR
Launch vehicle
Mass (kg)
RCS (m²)

Purposes: comms

External: N2YO · Heavens-Above · Gunter

§ Orbital elements

Epoch: 2026-05-24T15:33:59.091840Z

Period
94.27 min
Inclination
43.0008°
Eccentricity
0.0001790
Mean motion
15.27584860 rev/d
Perigee alt
481.8 km
Apogee alt
484.3 km
Semi-major
6,861.2 km
B*
8.4281e-4
RAAN
241.6022°
Arg perigee
269.7889°
Mean anomaly
90.2758°
Rev number
2,435

§ Raw data

STARLINK-358571 67186U 25303Z   26144.64860060  .00023006  00000+0  84281-3 0  99942 67186  43.0008 241.6022 0001790 269.7889  90.2758 15.27584860 24359

JSON: /api/v1/satellites/67186 · /tle

For live sub-satellite position, see the globe view (requires WebGL).

§ Visibility from observer

Set your observer location to see the next 7 days of passes ≥ 10°. The values pass through the URL so the page stays shareable.

No JS? Fill the form by hand. The geolocation button needs JavaScript.